User: anonymous   Login
Location: ??
(35.5052°N, 139.7262°E)
Time: 22:21:32
(UTC+00:00)
Language:

SPOT 1/Viking Rocket - Orbit

View from above orbital plane
View from above orbital plane
View from above satellite
View from above satellite

Ground track
Ground track

The orbit data is extracted from the following two-line orbital elements,

1 16615U 86019C   21271.43700911  .00000054  00000-0  35977-4 0  9995
2 16615  98.4190 330.4138 0012932 105.4535 265.5240 14.31862076863250
Epoch (UTC): 28 September 2021 10:29:17
Eccentricity: 0.0012932
inclination: 98.4190°
perigee height: 776 km
apogee height: 795 km
right ascension of ascending node: 330.4138°
argument of perigee: 105.4535°
revolutions per day: 14.31862076
mean anomaly at epoch: 265.5240°
orbit number at epoch: 86325

The dashed part of the orbit path shows where the satellite is in the earth's shadow,  

DLR